Погода Большие Уки

Погода Большие Уки : погода сейчас, прогноз погоды и архив. Всё, что Вы хотите узнать о погоде Большие Уки!

Хотите узнать прогноз погоды Большие Уки? Тогда Вам сюда: Погода Большие Уки

Поиск расширенной информации на нашем сайте:

Полезная информация: Все для депиляции воском.

Другие новости

Новости СМИ2

Главная страница сайта

Новости сайта

03.07.2017

Напоминаем, что на нашем специализированном сайте Метеоцентр.Азия вы можете получить высокодетализированные автоматические прогнозы погоды по пунктам России, СНГ и мира в авиационном формате (включающие направление и скорость ветра, видимость, явления погоды, количество и форму облачности, нижнюю и верхнюю границу облачности).

Рекомендуем: форум отзывов о скидках купонаторов Москвы

Погода Большие Уки - сегодня

Время (UTC), дата Ветер
(°,м/с) 
Видим.   Явления Облачность Т
(°С)
Тd
(°С)
f(%) Тe
(°С)
Pmin
(гПа)
dP
(гПа)
Po
(мм)
O2
(г/м3)
Тmin Tmax R s Состояние
почвы
21 20.10.17 220 (ЮЗ) 4{10}  10 км    10/0 средняя 
[Ac As]
+3.3 +0.2 80 +1  997.7  742  295           
00 21.10.17 220 (ЮЗ) 10 км    3/0 верхняя 
[Ci fib]
+2.1 -0.8 81 997.8  0.1  742  297           
03 21.10.17 210 (ЮЗ) 20000 м    9/9 600 м 
[Sc]
+1.4 -1.5 81 -1  998.5  0.6  742  298  +1.3         
06 21.10.17 230 (ЮЗ) 5{11}  20000 м    10/10 600 м 
[Sc]
+1.3 -2.6 75 -1  999.8  1.3  743  298  +1.3         
09 21.10.17 250 (З) 3{11}  20000 м    10/10 600 м 
[Sc]
+1.9 -2.9 70 1001.1  1.3  744  298           
12 21.10.17 230 (ЮЗ) 10 км    10/10 600 м 
[Sc]
+1 -2.5 77 -1  1002.5  1.3  745  299           
15 21.10.17 230 (ЮЗ) 10 км    10/10 600 м 
[Sc]
+0.2 -2 85 -2  1003.4  0.9  746  300    +2       
18 21.10.17 230 (ЮЗ) 10 км    10/10 600 м 
[Sc]
-0.2 -2.5 84 -2  1003.7  0.3  746  301           
21 21.10.17 240 (ЮЗ) 4000 м  слаб. снег  10/10 300 м 
[Ns]
-1.4 -2.1 95 -2  1004.3  0.5  746  302           
00 22.10.17 260 (З) 10 км  {снег}  10/8 600 м средняя 
[Sc|Ac trans]
-1.8 -2.5 95 -3  1005.3  747  303           
03 22.10.17 250 (З) 20000 м    10/8 600 м средняя, верхняя 
[Sc|Ac trans|Ci fib]
-2.1 -4.1 86 -3  1006.9  1.6  748  304  -2.5    0.4  равномерный
сухой снег
100% 
06 22.10.17 240 (ЮЗ) 20000 м  {ливн. осадки}  8/1 600 м кучево-дожд., средняя 
[Cb cap|Ac trans]
+0.5 -5.6 64 -2  1008.1  1.3  749  302           
09 22.10.17 230 (ЮЗ) 20000 м  в посл. час ливневой снег  9/9 600 м кучево-дожд. 
[Cb cap]
-0.9 -3.5 82 -3  1009.8  1.6  750  304           
12 22.10.17 250 (З) 10 км  {ливн. осадки}  3/3 600 м 
[Sc diur, vesp]
-0.8 -6.8 64 1011.6  1.7  752  305           
15 22.10.17 230 (ЮЗ) 10 км    3/0 верхняя 
[Ci fib]
-2.2 -6.8 71 -3  1013.5  1.9  753  307    +1.6  0.0     
18 22.10.17 210 (ЮЗ) 10 км    3/0 верхняя 
[Ci fib]
-3.6 -7.7 73 -3  1014.8  1.2  754  309           
21 22.10.17 220 (ЮЗ) 10 км    5/0 верхняя 
[Ci fib]
-3.5 -6.9 77 -5  1015.8  755  309           
00 23.10.17 150 (ЮВ) 10 км    3/0 верхняя 
[Ci fib]
-5.4 -7.5 85 -5  1016.9  756  311           
03 23.10.17 200 (Ю) 20000 м    3/1 600 м средняя 
[Sc|Ac trans]
-5 -7 86 -6  1017.7  0.8  756  311  -6.5         
06 23.10.17 200 (Ю) 20000 м    10/0 средняя, верхняя 
[Ac trans|Ci]
-0.5 -5.1 71 -1  1018  0.4  757  306           
09 23.10.17 190 (Ю) 20000 м    10/1 600 м средняя, верхняя 
[Cu hum|Ac trans|Ci]
+1.8 -6.1 56 +1  1017.5  -0.5  756  303           
12 23.10.17 130 (ЮВ) 10 км    10/3 600 м средняя, верхняя 
[Sc|Ac trans|Ci]
-0.3 -7.2 60 1016.9  -0.7  756  306           
15 23.10.17 130 (ЮВ) 10 км    10/0 средняя 
[Ac As]
-1 -7.5 61 -2  1016.4  -0.7  755  306    +1.9       
18 23.10.17 120 (ЮВ) 10 км    10/10 600 м 
[Sc]
-1.3 -5.7 72 -2  1014.9  -1.5  754  306           
21 23.10.17 060 (СВ) 4000 м  слаб. снег  10/10 300 м 
[Ns]
-2.5 -3.5 93 -6  1011.1  -3.7  751  306           
Время (UTC), дата Ветер
(°,м/с) 
Видим.   Явления Облачность Т
(°С)
Тd
(°С)
f(%) Тe
(°С)
Pmin
(гПа)
dP
(гПа)
Po
(мм)
O2
(г/м3)
Тmin Tmax R s Состояние
почвы

Для получения пояснительной информации подведите курсор к названию столбца.

ПОГОДА Большие Уки - архив

Всё, что Вы хотите узнать о погоде Большие Уки - удобно и подробно!

Выберите нужную дату (начиная с 1 января 2015* года) и нажмите кнопку "Найти".
Будут отображены архивные сводки погоды по пункту Большие Уки, начиная с указанной даты.


Отображать данные в формате CSV (для использования в таблицах Excel)


Внимание! Наш архив погоды предназначен исключительно для личного некоммерческого использования в познавательных целях. Если Вам необходимы официальные справки о состоянии погоды (для производственных, юридических, коммерческих и т.п. целей), обращайтесь в органы Росгидромета.

*Примечание: данная дата относится к архиву по метеостанциям СССР (Россия, СНГ, Балтия).
Архив по метеостанциям Зарубежной Европы и Азии (кроме Китая) хранится 10 дней, по другим регионам земного шара (Китай, Африка, Америка, Австралия, Океания) - 1 день.

Большие Уки - район местоположения метеостанции


Название, широта, долгота, высота метеостанции:
Большие Уки 56.9°ш. 72.7°д. 87 м над ур. моря [Российская Федерация]

Дополнительная информация

В oтличие oт бoльшинства пoгoдных сайтoв мы публикуем пoдрoбную метеoинфoрмацию в детальнoм прoфессиoнальнoм фoрмате.

Характеристики температуры и влажнoсти вoздуха измеряются на высoте 2 м в тени вдали oт зданий и деревьев.
Скoрoсть ветра измеряется на высoте 10 м (на урoвне рoста челoвека скoрoсть ветра ниже в 1.5-2 раза). Если метеoстанция нахoдится в гoрoде или в лесу, тo скoрoсть ветра занижена на 2-4 м/с пo сравнению с oткрытым местoм. Скoрoсть ветра над акватoриями крупных рек и oзёр, а также на вершинах хoлмoв на 2-5 м/с выше, чем в oбычных услoвиях.
Атмoсфернoе давление в разных тoчках местнoсти мoжет значительнo oтличаться oт давления на метеoстанции, в зависимoсти oт услoвий рельефа (при пoдъёме на 10 м давление пoнижается примернo на 1 мм рт.ст.).